Flag for Morocco Weather past 2 weeks in Tangier, Morocco

Now
84 °F

Broken clouds.


Feels Like: 87 °F
Forecast: 69 / 80 °F
Wind: 13 mph from East

Location: Tanger Aerodrome

Current Time: Aug 30, 2015 at 7:15:53 PM

Latest Report: Aug 30, 2015 at 7:00 PM


Visibility: 5 mi

Pressure: 29.92 "Hg

Humidity: 58%

Dew point: 68 °F

Location of TangierLocation

Historic Weather in Tangier — Graph

°F

Tangier temperature yesterday

Maximum temperature yesterday: 88 °F (at 1:30 PM)
Minimum temperature yesterday: 75 °F (at 5:00 AM)
Average temperature yesterday: 82 °F

Past Weeks' High & Low Weather Summary

 TemperatureHumidityPressure
High91 °F (Aug 20, 12:30 PM)94% (Aug 21, 7:00 AM)30.09 "Hg (Aug 21, 7:00 AM)
Low61 °F (Aug 25, 7:00 AM)38% (Aug 20, 1:00 PM)29.83 "Hg (Aug 28, 5:00 PM)
Average75 °F69%29.98 "Hg
* Reported Aug 15 6:00 PM — Aug 30 6:00 PM, Tangier, Weather by CustomWeather, © 2015

Note: Actual official high and low records may vary slightly from our data, if they occured in-between our weather recording intervals... More about our weather records

Advertising

Tangier weather history for previous 24 hours

 ConditionsComfort  
Time TempWeatherWind HumidityBarometerVisibility
6:00 PM
Sun, Aug 30
86 °FBroken clouds.15 mph55%29.92 "Hg5 mi
5:30 PM88 °FBroken clouds.14 mph52%29.92 "Hg5 mi
5:00 PM84 °FBroken clouds.15 mph58%29.92 "Hg4 mi
4:30 PM82 °FBroken clouds.20 mph62%29.92 "Hg4 mi
4:00 PM91 °FBroken clouds.12 mph46%29.92 "Hg4 mi
3:30 PM91 °FBroken clouds.18 mph46%29.92 "Hg4 mi
3:00 PM90 °FBroken clouds.16 mph49%29.92 "Hg4 mi
2:30 PM88 °FBroken clouds.20 mph52%29.92 "Hg4 mi
2:00 PM86 °FBroken clouds.25 mph59%29.89 "Hg4 mi
1:30 PM84 °FBroken clouds.28 mph62%29.92 "Hg4 mi
1:00 PM81 °FBroken clouds.25 mph70%29.89 "Hg4 mi
12:30 PM79 °FLight rain. Broken clouds.20 mph70%29.98 "Hg4 mi
12:00 PM82 °FBroken clouds.15 mph66%29.98 "Hg5 mi
11:30 AM86 °FBroken clouds.15 mph59%29.95 "Hg5 mi
11:00 AM88 °FPartly sunny.9 mph52%29.95 "Hg5 mi
10:30 AM84 °FPartly sunny.13 mph62%29.92 "Hg5 mi
10:00 AM82 °FBroken clouds.15 mph62%29.89 "Hg5 mi
9:30 AM82 °FBroken clouds.25 mph66%29.86 "Hg5 mi
9:00 AM82 °FBroken clouds.23 mph66%29.86 "Hg5 mi
8:30 AM81 °FBroken clouds.21 mph70%29.89 "Hg5 mi
8:00 AM81 °FBroken clouds.22 mph70%29.89 "Hg5 mi
7:30 AM79 °FBroken clouds.21 mph74%29.89 "Hg5 mi
7:00 AM79 °FBroken clouds.21 mph74%29.89 "HgN/A
6:30 AM79 °FPassing clouds.22 mph74%29.89 "HgN/A
6:00 AM79 °FPassing clouds.25 mph74%29.86 "HgN/A
5:00 AM79 °FPassing clouds.25 mph74%29.86 "HgN/A
4:30 AM79 °FPassing clouds.21 mph74%29.86 "HgN/A
4:00 AM79 °FPassing clouds.24 mph74%29.86 "HgN/A
3:30 AM79 °FPassing clouds.23 mph74%29.89 "HgN/A
3:00 AM79 °FPassing clouds.18 mph74%29.89 "HgN/A
2:30 AM79 °FPassing clouds.21 mph70%29.89 "HgN/A
2:00 AM79 °FPassing clouds.25 mph70%29.89 "HgN/A
1:30 AM79 °FPassing clouds.25 mph74%29.89 "HgN/A
1:00 AM81 °FPassing clouds.23 mph66%29.89 "Hg5 mi
12:30 AM81 °FPassing clouds.25 mph66%29.89 "HgN/A
12:00 AM81 °FPassing clouds.26 mph66%29.89 "Hg5 mi
11:30 PM
Sat, Aug 29
81 °FPassing clouds.24 mph66%29.89 "Hg5 mi
11:00 PM81 °FPassing clouds.26 mph66%29.89 "Hg5 mi
10:30 PM81 °FPassing clouds.25 mph66%29.89 "Hg5 mi
10:00 PM81 °FPassing clouds.22 mph66%29.89 "Hg5 mi
9:30 PM81 °FPassing clouds.24 mph66%29.89 "Hg5 mi
9:00 PM81 °FPassing clouds.24 mph66%29.89 "Hg5 mi
8:30 PM81 °FPassing clouds.24 mph66%29.89 "Hg5 mi
8:00 PM81 °FPassing clouds.24 mph66%29.89 "Hg5 mi
7:30 PM82 °FPartly sunny.26 mph62%29.89 "Hg5 mi
7:00 PM82 °FPartly sunny.26 mph62%29.86 "Hg5 mi
Weather by CustomWeather, © 2015

See weather overviewHow to use our weather pages